Theta_e
336 345 350 353 352 352 353 352 352 351 350 349 349 350 350 350 351 351 351 351 351 350 348 346 344 342 340 341 341 343 344 345 344 343 344 343 344 345 343 343 344 341 345
336 347 347 351 352 352 353 352 350 350 350 349 348 348 349 349 350 351 350 350 349 347 346 345 342 340 340 341 344 344 345 345 345 345 345 345 345 345 345 343 344 341 343
340 347 347 349 351 351 352 351 349 348 349 348 347 347 348 348 348 348 349 348 348 345 344 341 340 339 340 343 343 344 344 344 344 342 342 337 338 344 344 343 342 341 341
333 346 347 346 351 351 351 350 349 348 349 349 347 347 346 346 347 346 346 347 346 342 341 339 338 338 342 344 344 344 344 343 342 340 336 336 338 343 343 342 340 338 338
326 341 347 345 350 350 351 350 349 348 349 349 348 346 345 345 346 346 346 346 345 342 339 338 338 342 343 343 343 343 344 342 338 335 331 334 335 341 342 340 337 336 335
318 329 340 345 348 350 348 349 349 349 348 349 348 347 346 345 346 346 346 345 344 343 340 338 341 343 343 343 342 342 342 340 336 331 332 335 332 340 339 337 334 334 335
311 321 326 332 337 342 346 346 346 347 348 348 348 347 346 346 346 346 345 345 344 343 341 343 342 343 343 342 341 342 341 337 329 329 330 330 331 337 335 334 333 333 333
309 313 319 322 327 331 334 340 344 344 346 346 347 346 345 346 345 345 345 345 344 343 342 344 343 342 342 341 341 340 336 332 330 329 328 328 335 334 333 332 333 332 331
309 310 313 316 320 324 328 330 331 341 342 343 345 344 343 343 343 344 343 344 344 342 344 344 342 341 341 340 339 337 333 330 327 330 329 330 335 333 332 331 330 330 329
306 309 309 312 314 316 325 327 327 329 337 339 339 338 336 337 338 338 336 340 343 343 343 342 341 340 340 339 337 333 330 328 327 330 329 330 335 333 330 330 330 329 328
297 305 307 309 311 313 320 322 326 326 330 333 334 332 331 339 337 334 332 336 341 341 341 340 339 338 337 335 334 330 327 327 326 328 328 332 336 334 331 330 329 328 327
292 296 305 306 307 311 318 317 321 326 326 336 337 336 338 338 336 334 328 330 334 334 338 339 337 334 330 329 330 328 326 325 325 327 327 333 337 335 332 330 329 327 327
293 294 297 304 306 306 311 311 316 322 326 332 337 336 337 336 332 331 329 330 330 325 330 332 331 330 328 327 326 325 324 324 323 326 327 331 337 336 334 331 329 327 327
292 293 295 299 305 305 309 309 312 319 323 325 336 335 335 333 330 329 327 326 327 325 324 325 325 327 326 326 326 324 324 323 323 326 326 326 333 336 335 332 330 329 328
293 293 294 296 304 306 306 308 310 314 317 321 324 335 335 331 329 328 325 326 325 325 326 325 325 326 325 324 326 325 323 322 323 325 325 321 328 336 335 334 332 330 330
294 295 296 300 302 304 305 306 308 311 317 318 322 333 334 332 330 328 325 325 324 325 326 325 326 324 323 323 325 326 324 322 323 324 327 325 325 331 336 335 333 333 333
294 295 296 299 302 302 304 306 308 311 316 319 324 329 333 333 330 328 325 325 325 324 324 325 324 324 323 322 321 324 324 323 323 323 325 326 325 323 329 333 334 333 333
292 294 297 300 301 302 302 304 306 310 312 316 323 328 327 332 331 328 326 325 325 324 323 323 324 322 322 321 319 320 322 323 323 322 323 324 324 324 324 328 330 331 331
291 294 295 297 299 302 302 303 304 309 312 316 322 326 329 329 331 329 326 324 325 323 322 322 320 321 319 320 320 320 320 322 322 323 322 321 321 322 321 322 322 320 323
290 293 294 296 298 300 301 303 304 305 309 315 321 327 331 331 328 327 325 324 324 323 322 322 321 320 319 319 319 317 319 319 320 320 320 320 319 318 317 316 315 312 317
290 291 294 295 297 297 298 299 301 306 313 320 324 326 330 329 328 326 325 324 323 322 322 322 319 318 316 318 316 314 314 318 317 317 318 315 310 305 303 302 302 300 302
289 290 292 295 297 297 300 302 307 311 316 323 326 328 329 328 327 325 324 323 323 322 322 320 319 315 316 318 314 312 309 311 312 306 306 303 301 302 300 299 298 297 297
289 288 292 295 299 299 300 303 307 315 316 321 322 323 326 326 326 325 324 323 323 323 321 321 319 317 312 315 315 311 305 303 305 301 298 298 297 296 296 295 294 294 294
294 289 296 303 302 305 305 306 307 311 312 318 320 321 321 325 325 324 324 323 323 323 321 320 319 317 315 311 312 312 308 308 305 298 297 294 294 293 292 292 292 292 292
291 293 298 299 299 300 303 306 310 311 315 317 308 304 301 301 304 315 321 321 317 308 304 305 303 301 303 301 301 302 304 302 301 304 297 292 291 291 291 291 290 289 289
288 288 292 294 294 296 298 301 307 306 305 302 300 297 295 295 296 298 299 298 298 297 295 294 293 293 292 291 290 288 289 291 292 295 296 293 289 288 290 289 287 286 286
Wind_Speed
2 6 12 15 16 16 16 16 17 17 17 18 17 17 17 18 19 19 21 19 19 19 18 17 15 16 16 16 15 14 13 12 12 12 12 12 12 14 13 8 11 11 16
4 8 13 15 15 14 15 17 15 16 16 17 18 17 17 17 18 20 19 19 17 18 18 17 16 15 16 16 14 14 14 14 12 12 11 11 13 17 18 16 16 15 17
3 9 11 13 16 14 14 16 18 15 16 18 18 17 17 18 18 20 19 18 17 17 17 16 16 17 16 16 16 15 16 14 14 13 12 6 7 18 19 17 16 16 14
6 6 9 12 14 15 15 14 16 17 16 16 17 18 17 17 18 18 18 17 16 17 17 17 16 17 16 16 14 15 17 15 12 12 7 6 7 16 17 17 15 13 12
12 2 9 13 15 16 15 15 16 17 15 16 16 18 18 18 17 16 16 15 16 17 18 17 17 17 14 13 14 16 16 15 11 7 6 6 6 12 16 15 13 13 11
10 11 7 10 15 14 17 18 18 18 19 16 17 17 19 18 17 16 15 15 15 16 17 18 17 14 14 14 16 14 14 12 11 7 6 10 7 14 15 14 12 13 11
8 9 11 16 13 9 13 19 20 19 19 19 18 18 17 18 17 17 15 15 16 17 16 16 16 15 14 14 14 14 11 11 7 6 6 7 7 13 12 10 11 12 12
7 7 8 11 15 15 12 9 18 22 20 19 20 19 18 18 18 17 17 15 15 17 17 17 16 15 13 13 13 11 12 8 6 6 6 5 10 10 10 9 10 11 11
6 7 6 6 7 11 10 15 15 15 23 21 20 20 19 18 17 16 15 15 17 17 18 17 15 14 12 11 10 10 9 8 5 4 6 6 13 9 10 10 9 9 10
6 6 6 5 6 5 5 8 10 13 16 20 19 17 16 14 14 13 11 13 18 17 18 18 17 14 13 10 10 9 7 6 5 5 3 6 15 9 9 9 10 10 10
4 4 4 5 5 4 4 5 7 8 11 16 16 15 13 10 11 12 10 11 13 15 17 17 16 15 12 10 10 7 7 3 3 2 3 12 14 14 11 10 10 10 10
5 4 2 2 3 3 3 3 2 5 5 9 11 12 10 11 10 10 10 11 11 11 16 17 15 13 9 4 4 7 3 4 2 4 3 10 14 16 12 12 11 10 10
4 2 4 3 1 3 2 3 1 1 3 5 10 11 10 8 7 7 5 7 6 9 6 10 9 6 6 4 4 4 5 5 3 3 5 12 14 16 16 14 12 11 10
7 7 5 3 3 3 2 3 4 1 2 3 6 11 9 6 8 8 7 8 7 4 5 5 4 6 6 6 6 5 5 4 3 3 5 12 11 14 15 14 14 12 12
7 6 6 3 6 4 4 4 4 3 2 4 8 11 10 9 9 9 9 8 7 6 6 6 6 6 6 5 5 5 5 5 5 3 3 11 11 12 14 15 15 14 14
7 7 6 4 6 4 5 5 5 4 3 4 7 6 13 10 10 10 10 9 8 7 6 6 7 7 6 5 6 6 6 5 6 6 4 7 11 12 13 14 15 16 17
14 8 6 5 6 5 6 6 5 4 4 4 4 10 4 11 12 13 10 9 9 8 7 6 5 6 6 4 6 5 5 6 5 6 5 4 6 9 9 11 13 15 16
14 10 7 3 3 6 6 5 4 5 4 5 6 5 10 6 12 9 10 9 9 9 8 6 6 5 5 6 4 4 4 4 5 4 3 3 3 2 5 8 10 12 14
15 15 8 3 1 5 6 5 5 7 5 6 6 7 11 11 11 12 6 7 9 10 9 8 3 4 4 5 5 4 3 5 6 4 5 4 4 3 2 5 6 9 10
12 10 6 7 4 4 4 4 4 5 6 6 6 8 6 10 11 11 8 6 5 2 5 6 6 2 3 4 4 4 4 2 3 4 3 3 3 3 4 4 5 10 18
9 9 9 9 9 3 2 2 4 5 4 5 7 7 9 10 13 11 8 10 8 7 4 6 4 4 1 4 4 2 1 4 4 3 3 6 8 7 9 9 6 5 7
11 9 9 7 7 6 3 3 3 5 5 4 4 6 11 11 11 10 9 8 8 8 7 4 3 3 2 4 4 3 3 1 4 7 6 7 9 7 9 10 10 10 8
9 7 9 9 9 6 6 2 4 5 4 2 3 2 6 13 12 11 11 10 10 9 8 8 5 5 3 2 3 4 3 3 4 4 9 7 9 7 8 9 11 11 10
16 7 6 10 10 9 9 5 8 6 5 2 1 3 5 5 10 13 13 11 11 8 8 6 4 3 4 5 2 3 4 3 3 3 3 6 8 8 8 7 8 10 10
17 17 14 14 14 13 12 12 7 8 3 3 6 10 11 11 13 8 5 7 8 6 9 11 8 8 4 4 3 3 2 4 5 2 4 3 6 6 5 6 7 8 9
16 17 15 16 14 14 13 12 6 8 7 7 7 8 8 9 9 12 12 14 12 11 12 11 12 15 10 10 9 9 5 3 3 4 3 4 5 3 4 7 7 7 6
Wind_Direction
240 171 174 171 171 171 158 154 149 144 144 141 139 136 133 132 133 135 137 139 140 141 142 138 139 135 131 130 129 124 124 125 125 128 131 134 141 137 129 112 76 133 107
222 177 172 171 174 177 162 156 152 148 149 147 145 143 139 138 138 138 139 139 141 145 147 148 148 142 140 138 133 132 137 123 111 104 103 113 120 124 120 100 91 101 89
209 170 177 174 170 178 166 160 157 162 156 156 151 150 147 146 145 146 145 144 145 149 151 156 153 149 146 143 140 138 135 131 122 113 107 102 114 115 105 100 96 91 95
13 180 173 179 175 178 170 168 163 163 165 163 161 156 155 153 151 154 149 148 148 154 156 158 154 151 152 153 151 146 138 133 125 121 115 110 114 118 113 108 98 105 107
25 302 184 183 186 182 173 173 171 168 175 172 169 165 163 161 159 160 158 158 158 157 159 160 155 155 158 171 167 146 139 136 129 118 105 113 105 109 105 109 110 112 108
31 32 1 202 194 188 185 184 179 174 173 176 172 173 170 168 166 164 167 166 166 159 165 160 157 160 162 151 144 145 143 136 124 126 124 121 112 113 107 112 124 125 121
31 36 47 40 28 351 226 201 191 187 180 175 175 175 176 171 169 166 174 175 172 164 166 164 159 159 165 154 147 146 134 130 124 125 128 118 115 124 116 142 139 139 133
65 31 36 38 35 36 13 325 211 194 192 184 176 178 180 178 175 173 175 180 181 169 170 162 160 162 163 153 148 146 133 129 125 139 127 122 125 126 144 152 147 142 138
69 65 43 39 30 30 21 30 19 239 197 190 185 179 181 181 181 180 177 182 180 175 170 158 158 159 158 155 142 145 143 131 143 137 134 124 122 139 157 157 157 154 151
45 48 49 43 40 25 28 3 354 351 242 194 189 182 178 176 175 170 168 173 177 173 164 164 157 156 158 156 146 159 145 129 152 151 139 136 132 155 163 162 165 165 162
27 44 46 36 26 25 22 22 319 356 292 229 191 187 173 178 173 166 174 176 172 166 163 165 160 157 157 162 161 156 143 155 146 169 140 155 152 157 167 173 171 175 173
352 22 29 31 6 6 4 19 340 314 325 242 207 185 184 179 177 172 175 174 170 167 164 166 164 153 144 151 161 147 164 171 178 180 152 175 165 164 174 178 182 187 187
279 283 308 290 281 346 332 322 300 213 273 280 211 182 190 173 173 168 175 181 173 184 179 169 159 143 155 156 158 163 174 173 190 171 161 191 181 177 173 178 188 195 199
293 283 296 293 242 243 261 273 278 223 266 270 228 189 180 172 176 175 177 181 168 162 174 150 145 152 164 169 170 176 178 173 180 175 174 190 195 192 179 180 187 200 208
275 276 283 263 229 227 238 258 268 262 253 325 302 194 182 178 181 173 179 182 171 165 172 157 163 161 168 175 174 181 187 191 185 175 175 197 198 207 197 190 199 204 213
270 266 261 233 211 195 227 251 253 250 229 267 257 265 184 180 180 182 177 185 178 169 166 162 171 167 170 174 180 189 201 197 184 176 181 198 202 214 214 214 215 217 220
318 274 244 220 225 213 237 250 256 245 231 245 248 229 231 198 189 185 178 178 189 165 155 157 165 166 163 172 191 196 184 186 174 173 173 181 200 218 228 240 247 244 252
332 302 236 230 244 228 243 255 257 253 240 225 240 235 207 214 200 191 189 180 184 166 170 158 167 166 181 172 171 202 175 166 152 162 150 171 183 175 229 251 271 269 275
320 321 280 228 279 243 268 270 267 257 241 247 242 255 200 191 198 196 195 178 177 180 173 166 131 149 166 173 167 169 194 163 160 169 171 194 189 191 197 238 281 5 4
306 320 335 300 245 236 257 275 277 268 251 240 235 245 179 176 163 178 168 152 152 114 168 150 148 145 148 188 170 143 164 135 144 169 184 157 158 51 55 49 48 59 52
300 325 339 338 304 271 270 287 286 257 250 251 252 239 182 164 167 177 171 176 153 147 184 162 130 160 152 151 110 75 19 160 187 158 49 66 70 66 59 51 53 49 47
303 318 318 306 300 295 235 210 238 258 258 238 238 221 190 162 161 147 152 134 157 160 144 176 158 132 141 182 136 100 189 153 69 42 43 66 60 57 62 59 58 53 47
303 305 315 315 315 308 278 292 275 273 285 310 204 139 144 145 147 150 149 164 163 155 178 187 165 158 150 187 212 146 148 179 116 27 45 50 54 55 56 57 55 53 48
353 328 331 7 359 342 324 300 243 234 237 196 279 107 76 134 160 156 167 163 170 166 185 170 150 151 146 169 127 80 43 94 133 139 78 54 57 51 59 59 56 53 45
6 9 13 11 3 346 339 325 241 227 248 36 64 79 59 48 42 47 128 121 110 80 72 80 73 72 48 80 57 38 48 55 47 100 141 111 79 55 52 59 61 58 40
12 15 13 11 6 2 358 351 40 67 73 81 64 73 66 53 45 44 62 71 68 76 76 74 73 69 72 72 72 61 52 32 41 60 96 76 99 71 74 75 50 45 36